Location: Allen Lane School
(37.8198°N, 89.7382°W)
Time: 19:56:53
(UTC+00:00)

Cosmos 1939 Rocket - Pass Details

Date: 08 December 2021
Orbit: 531 x 583 km, 97.4° (Epoch: 16 January)

Event Time Altitude Azimuth Distance (km) Brightness Sun altitude
Rises 12:28:59 0° 4° (N) 2,707 6.2 -6.7°
Reaches altitude 10° 12:31:11 10° 358° (N) 1,804 5.2 -6.3°
Maximum altitude 12:34:53 44° 286° (WNW) 742 3.1 -5.7°
Drops below altitude 10° 12:38:33 10° 213° (SSW) 1,776 5.3 -5.0°
Sets 12:40:42 0° 207° (SSW) 2,659 6.3 -4.6°
